Date,TemperatureHighF,TemperatureAvgF,TemperatureLowF,DewpointHighF,DewpointAvgF,DewpointLowF,HumidityHigh,HumidityAvg,HumidityLow,PressureMaxIn,PressureMinIn,WindSpeedMaxMPH,WindSpeedAvgMPH,GustSpeedMaxMPH,PrecipitationSumIn
2013-1-1,46.0,43.3,37.9,44.8,37.0,20.1,99,81,42,30.10,29.92,0,0,0,0.29
2013-1-2,42.3,36.2,32.8,42.0,35.3,32.3,99,96,88,30.12,29.88,0,0,0,0.02
2013-1-3,37.4,32.5,28.5,36.6,30.7,25.4,99,93,80,30.29,30.08,0,0,0,0.00
2013-1-4,37.1,29.4,25.0,25.6,21.7,18.5,89,74,48,30.38,30.28,0,0,0,0.00
2013-1-5,46.1,35.0,24.5,28.7,22.0,18.9,81,61,35,30.40,30.21,0,0,0,0.00
2013-1-6,44.1,37.5,33.9,37.5,32.9,27.4,94,83,70,30.22,30.04,0,0,0,0.00
2013-1-7,48.7,36.6,27.2,31.1,27.0,23.4,92,70,39,30.39,30.20,0,0,0,0.00
2013-1-8,50.3,41.5,32.3,44.2,34.5,26.4,91,76,58,30.42,30.31,0,0,0,0.00
2013-1-9,56.0,50.1,46.4,51.9,48.5,44.2,100,94,84,30.42,30.33,0,0,0,0.00
2013-1-10,61.2,54.1,48.3,54.0,50.7,44.3,98,88,74,30.42,30.23,0,0,0,0.00
2013-1-11,56.1,51.4,45.5,56.0,51.1,43.9,100,99,88,30.23,30.07,0,0,0,0.04
2013-1-12,69.4,60.5,55.9,60.9,57.5,54.9,100,90,69,30.12,29.99,0,0,0,0.01
2013-1-13,65.9,59.5,56.2,58.1,55.7,53.6,97,88,72,30.03,29.93,0,0,0,0.02
2013-1-14,57.3,51.2,39.4,56.9,51.1,39.1,100,99,97,30.11,29.94,0,0,0,1.22
2013-1-15,50.6,47.1,39.7,50.6,47.0,39.4,100,100,99,30.09,29.95,0,0,0,0.84
2013-1-16,53.2,49.7,46.3,53.2,49.6,46.3,100,99,97,29.99,29.88,0,0,0,0.23
2013-1-17,50.0,38.0,28.1,50.0,37.9,27.8,100,100,99,30.19,29.74,0,0,0,1.52
2013-1-18,41.9,31.8,24.5,31.7,26.7,22.3,99,83,54,30.52,30.19,0,0,0,0.10
2013-1-19,50.8,39.9,30.5,31.0,26.1,18.1,81,60,29,30.47,30.15,0,0,0,0.02
2013-1-20,52.3,42.7,37.6,35.4,28.3,17.7,71,57,42,30.15,30.03,0,0,0,0.00
2013-1-21,46.8,37.5,25.8,29.5,23.8,13.0,79,58,41,30.07,29.94,0,0,0,0.00
2013-1-22,27.2,21.6,15.9,14.2,4.1,-4.3,69,48,27,30.27,30.00,0,0,0,0.00
2013-1-23,39.4,29.5,20.9,26.4,15.3,1.4,70,55,42,30.36,30.08,0,0,0,0.00
2013-1-24,38.4,30.4,21.1,31.2,16.5,5.0,81,58,35,30.37,30.00,0,0,0,0.00
2013-1-25,36.4,25.4,18.4,35.8,19.7,5.4,99,80,53,30.40,30.11,0,0,0,0.02
2013-1-26,43.2,33.9,28.0,34.6,27.1,23.0,99,78,46,30.33,30.14,0,0,0,0.00
2013-1-27,41.7,33.0,25.8,31.4,27.7,22.4,94,81,64,30.48,30.32,0,0,0,0.03
2013-1-28,61.9,47.6,33.0,50.1,40.6,30.6,94,78,57,30.42,30.20,0,0,0,0.01
2013-1-29,68.3,56.8,49.3,56.0,48.5,41.4,97,75,49,30.20,29.91,0,0,0,0.02
2013-1-30,58.6,53.7,40.8,57.9,53.1,38.9,100,98,93,29.91,29.40,0,0,0,2.23
2013-1-31,40.9,31.7,25.9,39.4,24.7,20.4,96,76,57,30.00,29.45,0,0,0,0.05
2013-2-1,36.9,23.2,16.2,29.7,14.9,8.0,94,71,54,30.37,29.92,0,0,0,0.00
2013-2-2,39.4,28.3,17.7,31.2,18.1,3.9,97,67,42,30.37,30.04,0,0,0,0.00
2013-2-3,41.0,31.4,24.9,33.5,27.0,20.7,96,84,62,30.04,29.90,0,0,0,0.05
2013-2-4,47.4,34.7,22.8,27.9,22.3,17.0,87,63,39,30.13,29.97,0,0,0,0.00
2013-2-5,51.4,43.8,37.5,38.9,30.4,21.9,72,59,49,29.98,29.89,0,0,0,0.00
2013-2-6,54.4,44.7,36.0,37.0,28.1,20.6,83,55,29,30.19,29.96,0,0,0,0.00
2013-2-7,45.4,40.4,37.1,39.1,30.7,19.7,97,72,36,30.18,29.94,0,0,0,0.38
2013-2-8,46.7,38.3,30.3,41.9,36.0,27.2,100,92,68,30.12,29.89,0,0,0,0.02
2013-2-9,52.1,37.7,24.8,28.0,23.1,15.5,94,62,27,30.33,30.08,0,0,0,0.00
2013-2-10,46.7,41.5,37.3,44.0,27.2,19.5,99,60,39,30.32,30.07,0,0,0,0.22
2013-2-11,53.3,47.2,43.1,50.6,42.2,24.0,100,85,44,30.11,29.97,0,0,0,0.02
2013-2-12,48.5,41.3,35.3,35.7,28.3,20.1,94,62,37,30.09,29.86,0,0,0,0.18
2013-2-13,45.1,37.0,31.6,43.0,35.7,29.8,99,95,80,29.88,29.62,0,0,0,0.14
2013-2-14,50.2,38.2,29.0,31.5,28.1,21.9,94,69,39,30.04,29.88,0,0,0,0.00
2013-2-15,54.4,40.5,29.9,36.9,31.3,27.8,96,72,38,30.07,29.92,0,0,0,0.00
2013-2-16,31.7,26.8,19.6,28.5,22.5,13.3,96,84,56,30.00,29.84,0,0,0,0.01
2013-2-17,31.8,23.5,16.6,14.8,11.3,8.8,77,60,42,30.29,30.00,0,0,0,0.00
2013-2-18,48.3,35.9,23.6,26.0,18.9,9.6,59,50,39,30.37,30.13,0,0,0,0.00
2013-2-19,50.9,38.5,30.3,41.9,27.5,15.0,97,66,40,30.15,29.85,0,0,0,0.01
2013-2-20,41.6,31.8,25.5,17.7,9.9,-0.6,63,42,19,30.15,30.01,0,0,0,0.00
2013-2-21,57.9,39.5,25.5,33.6,15.0,3.5,94,41,12,30.22,30.06,0,0,0,0.22
2013-2-22,40.4,36.3,31.7,39.6,34.9,30.1,99,95,85,30.21,30.05,0,0,0,0.24
2013-2-23,52.3,45.5,37.1,50.2,43.2,35.5,100,92,64,30.07,29.80,0,0,0,0.20
2013-2-24,51.2,42.3,35.4,40.5,30.0,22.3,95,65,34,30.02,29.81,0,0,0,0.00
2013-2-25,42.9,36.9,31.2,28.6,24.7,21.5,89,61,48,30.07,29.94,0,0,0,0.00
2013-2-26,37.9,32.8,29.4,37.6,31.9,27.6,99,97,89,29.95,29.63,0,0,0,0.42
2013-2-27,51.4,39.6,33.1,36.4,33.0,29.5,97,79,53,29.79,29.64,0,0,0,0.00
2013-2-28,37.4,30.8,27.7,32.7,26.9,23.8,96,85,72,29.91,29.68,0,0,0,0.01
2013-3-1,35.1,29.5,26.6,31.3,27.6,25.3,98,93,82,29.96,29.88,0,0,0,0.01
2013-3-2,35.4,28.5,23.3,30.1,26.2,20.3,97,91,74,29.96,29.86,0,0,0,0.02
2013-3-3,29.2,23.3,19.6,20.5,17.6,15.4,93,79,62,30.06,29.94,0,0,0,0.01
2013-3-4,47.5,33.9,20.9,25.4,16.4,10.9,83,54,23,30.18,30.05,0,0,0,0.01
2013-3-5,46.0,41.2,31.0,44.8,34.9,24.8,99,80,52,30.08,29.61,0,0,0,0.82
2013-3-6,30.9,25.0,22.2,28.9,24.0,21.0,97,96,89,30.21,29.63,0,0,0,0.00
2013-3-7,35.7,28.0,23.9,31.5,26.0,22.9,97,92,83,30.32,30.19,0,0,0,0.06
2013-3-8,46.4,33.3,23.3,29.9,25.4,21.7,95,75,48,30.37,30.28,0,0,0,0.01
2013-3-9,59.3,45.8,31.7,30.7,25.0,16.0,76,45,29,30.33,30.21,0,0,0,0.00
2013-3-10,60.2,51.2,45.1,35.5,31.5,27.3,56,47,37,30.21,30.07,0,0,0,0.00
2013-3-11,51.7,48.3,45.2,49.2,45.5,34.6,100,91,55,30.09,29.77,0,0,0,0.70
2013-3-12,49.7,40.6,33.6,49.7,37.2,31.8,100,88,67,30.02,29.73,0,0,0,0.24
2013-3-13,42.7,34.7,25.8,32.2,25.3,16.7,85,70,44,30.16,30.00,0,0,0,0.00
2013-3-14,43.1,30.3,20.6,19.4,16.2,11.8,81,58,31,30.31,30.14,0,0,0,0.00
2013-3-15,65.1,47.5,32.2,41.8,31.1,14.8,78,55,27,30.23,29.91,0,0,0,0.00
2013-3-16,73.8,61.2,52.4,46.9,43.8,40.6,66,54,36,29.91,29.68,0,0,0,0.00
2013-3-17,70.2,58.6,43.1,49.0,45.6,41.6,95,64,40,29.87,29.75,0,0,0,0.00
2013-3-18,43.1,38.8,34.2,43.1,38.5,33.8,100,99,94,29.95,29.81,0,0,0,0.50
2013-3-19,52.7,42.8,33.5,42.9,30.6,13.1,99,67,34,30.06,29.85,0,0,0,0.01
2013-3-20,50.4,37.9,27.1,29.3,14.9,8.7,94,41,22,30.08,29.82,0,0,0,0.00
2013-3-21,32.6,25.4,17.8,25.4,14.9,11.5,94,66,44,29.99,29.76,0,0,0,0.01
2013-3-22,46.0,32.9,21.3,27.3,15.0,11.1,69,50,26,30.07,29.98,0,0,0,0.00
2013-3-23,53.9,42.7,33.6,43.3,35.9,25.0,92,77,58,30.04,29.81,0,0,0,0.04
2013-3-24,42.7,38.4,34.7,40.8,37.5,34.3,99,96,85,29.87,29.46,0,0,0,0.55
2013-3-25,36.2,31.1,26.1,35.0,26.3,22.4,99,83,60,29.90,29.51,0,0,0,0.02
2013-3-26,33.6,27.3,24.1,29.6,25.4,22.8,97,92,82,30.23,29.88,0,0,0,0.03
2013-3-27,38.9,30.7,25.7,28.4,25.1,22.3,96,80,60,30.31,30.20,0,0,0,0.03
2013-3-28,47.6,35.9,26.7,25.5,22.2,19.5,80,60,35,30.32,30.24,0,0,0,0.00
2013-3-29,54.5,39.7,32.3,37.1,27.1,16.7,96,64,26,30.32,30.23,0,0,0,0.06
2013-3-30,58.6,47.1,37.4,45.7,39.9,36.3,98,78,53,30.23,30.01,0,0,0,0.24
2013-3-31,61.3,50.5,44.1,52.9,47.5,40.0,100,90,65,30.01,29.79,0,0,0,0.33
2013-4-1,61.1,49.4,41.5,47.2,42.0,32.1,98,77,48,29.94,29.81,0,0,0,0.03
2013-4-2,52.4,42.4,33.1,32.3,24.5,16.5,78,52,26,30.13,29.93,0,0,0,0.00
2013-4-3,56.5,44.2,31.8,25.0,20.5,14.5,57,40,22,30.22,30.12,0,0,0,0.00
2013-4-4,45.4,36.0,31.6,34.7,27.7,14.3,99,76,34,30.20,29.96,0,0,0,0.32
2013-4-5,53.5,41.4,34.6,44.1,37.0,34.3,100,86,56,30.09,29.94,0,0,0,0.00
2013-4-6,63.1,52.0,40.8,38.1,34.0,29.8,79,53,30,30.20,30.08,0,0,0,0.00
2013-4-7,65.8,55.7,45.4,45.1,39.3,32.4,67,55,41,30.14,30.02,0,0,0,0.00
2013-4-8,70.0,61.4,53.6,51.6,47.9,43.5,73,62,49,30.07,29.97,0,0,0,0.00
2013-4-9,77.5,66.1,56.3,55.5,52.7,48.3,80,63,43,30.12,30.00,0,0,0,0.00
2013-4-10,81.3,68.9,59.1,56.4,53.4,48.1,78,60,32,30.02,29.84,0,0,0,0.00
2013-4-11,73.2,64.8,58.2,60.6,55.2,51.6,99,72,49,29.86,29.57,0,0,0,0.43
2013-4-12,63.4,56.8,48.1,59.0,50.3,37.5,100,81,51,29.81,29.53,0,0,0,1.12
2013-4-13,48.3,47.5,46.9,37.8,37.2,36.6,68,67,66,29.83,29.81,0,0,0,0.00
2013-4-14,61.4,56.2,51.5,48.3,43.8,38.6,87,65,44,29.98,29.88,0,0,0,0.00
2013-4-15,66.7,55.1,48.5,57.2,51.7,46.8,100,89,63,30.14,29.88,0,0,0,0.03
2013-4-16,75.8,63.4,54.6,58.6,55.5,52.5,97,78,48,30.22,30.10,0,0,0,0.00
2013-4-17,72.7,62.5,58.4,63.0,58.1,55.1,98,86,69,30.16,30.04,0,0,0,0.19
2013-4-18,69.2,63.2,58.3,59.7,56.7,53.8,95,80,59,30.04,29.84,0,0,0,0.01
2013-4-19,63.4,55.6,39.1,60.9,54.3,35.6,99,95,87,29.86,29.63,0,0,0,0.06
2013-4-20,55.1,43.3,32.1,35.6,31.4,28.5,90,65,42,30.28,29.86,0,0,0,0.02
2013-4-21,57.7,48.0,40.2,36.8,31.0,26.4,69,53,34,30.39,30.26,0,0,0,0.01
2013-4-22,60.4,49.1,39.2,40.8,36.8,29.8,88,64,43,30.34,30.15,0,0,0,0.01
2013-4-23,69.9,54.7,41.9,45.4,36.8,27.3,71,52,25,30.21,30.03,0,0,0,0.00
2013-4-24,58.9,54.2,46.3,56.9,49.9,44.8,96,86,71,30.06,29.94,0,0,0,0.04
2013-4-25,63.4,49.6,37.5,44.8,33.3,11.4,96,62,15,30.29,30.03,0,0,0,0.01
2013-4-26,65.4,53.6,41.8,42.9,33.0,27.3,68,46,31,30.37,30.23,0,0,0,0.01
2013-4-27,53.6,49.8,46.8,49.7,45.8,38.4,99,87,57,30.32,30.17,0,0,0,0.00
2013-4-28,49.7,47.7,44.4,49.7,46.9,42.4,100,97,87,30.20,29.94,0,0,0,0.00
2013-4-29,70.5,57.4,48.4,57.5,52.1,47.3,100,85,45,30.03,29.88,0,0,0,0.01
2013-4-30,70.8,60.3,52.6,58.1,54.3,52.1,99,82,54,30.07,29.91,0,0,0,0.01
2013-5-1,63.7,55.9,51.2,54.2,51.8,49.8,96,87,65,30.19,30.07,0,0,0,0.01
2013-5-2,61.7,52.6,49.3,56.1,51.1,48.8,99,95,79,30.22,30.14,0,0,0,0.00
2013-5-3,50.5,49.2,47.7,50.0,48.6,46.7,99,98,94,30.17,30.08,0,0,0,0.01
2013-5-6,51.1,47.6,45.7,44.4,43.6,42.3,91,86,77,29.85,29.80,0,0,0,0.00
2013-5-7,63.8,51.5,43.2,49.5,45.9,42.0,97,83,52,29.91,29.81,0,0,0,0.00
2013-5-8,64.5,54.8,48.3,56.6,52.1,47.5,99,91,68,30.00,29.87,0,0,0,0.00
2013-5-9,75.0,62.0,49.8,59.5,52.9,48.9,99,75,45,30.07,29.97,0,0,0,0.00
2013-5-10,74.8,63.8,57.8,61.7,55.9,51.8,86,76,54,30.04,29.86,0,0,0,0.01
2013-5-11,71.9,61.7,53.7,60.8,56.5,51.5,96,83,64,29.90,29.76,0,0,0,0.00
2013-5-12,59.5,51.8,45.7,51.6,41.5,30.6,96,71,43,30.02,29.81,0,0,0,0.01
2013-5-13,59.7,48.4,39.3,35.4,32.1,27.0,76,55,31,30.17,30.01,0,0,0,0.00
2013-5-14,71.0,56.1,41.6,50.5,39.6,30.6,72,55,34,30.21,30.03,0,0,0,0.00
2013-5-15,82.7,69.7,57.5,59.0,52.3,48.9,76,56,34,30.06,29.91,0,0,0,0.00
2013-5-16,75.8,67.1,62.2,57.4,53.2,49.6,75,61,46,29.96,29.89,0,0,0,0.00
2013-5-17,76.0,66.8,58.9,61.7,56.5,53.3,85,70,51,30.03,29.94,0,0,0,0.00
2013-5-18,64.0,60.9,58.4,62.5,59.1,55.1,100,94,75,30.02,29.96,0,0,0,0.00
2013-5-19,71.7,63.1,59.3,67.5,61.7,58.7,100,95,79,30.05,29.94,0,0,0,0.00
2013-5-20,68.4,65.8,64.2,64.6,63.2,62.4,94,92,87,29.98,29.95,0,0,0,0.00
2013-5-21,82.5,69.7,61.3,67.3,62.6,57.9,97,80,48,29.98,29.85,0,0,0,0.00
2013-5-22,76.3,64.5,57.1,68.6,61.9,56.4,98,92,72,29.91,29.78,0,0,0,0.00
2013-5-23,76.3,63.9,56.3,63.1,58.5,52.8,100,85,52,29.88,29.79,0,0,0,0.00
2013-5-24,62.5,55.8,49.7,53.0,46.4,37.1,96,73,47,30.17,29.84,0,0,0,0.00
2013-5-25,71.2,55.6,42.4,42.9,38.6,27.4,84,57,22,30.28,30.16,0,0,0,0.00
2013-5-26,70.6,60.3,51.1,51.2,45.7,38.9,88,60,39,30.21,30.12,0,0,0,0.00
2013-5-27,73.6,63.8,53.5,61.3,54.0,47.2,84,71,58,30.19,30.07,0,0,0,0.00
2013-5-28,76.8,67.6,60.5,64.6,59.2,56.4,90,75,54,30.13,30.05,0,0,0,0.00
2013-5-29,78.9,68.1,59.0,64.0,59.5,53.3,95,76,45,30.15,30.06,0,0,0,0.00
2013-5-30,76.8,67.5,60.3,64.5,60.5,58.3,95,79,59,30.19,30.08,0,0,0,0.00
2013-5-31,76.1,68.5,62.3,63.6,60.7,58.3,94,77,58,30.14,30.03,0,0,0,0.00
2013-6-1,77.1,69.3,63.0,64.9,62.0,59.5,93,79,59,30.04,29.93,0,0,0,0.00
2013-6-2,65.9,62.8,61.1,64.2,62.2,60.8,100,98,91,29.97,29.84,0,0,0,0.00
2013-6-3,76.6,66.4,59.9,66.0,61.1,58.9,100,85,60,29.91,29.81,0,0,0,0.00
2013-6-4,73.4,65.9,59.0,65.5,61.1,57.1,95,85,71,29.99,29.88,0,0,0,0.00
2013-6-5,74.0,65.8,60.7,67.0,62.7,60.0,99,90,73,30.01,29.86,0,0,0,0.00
2013-6-6,71.2,64.6,60.0,68.6,63.6,59.7,100,97,88,29.92,29.71,0,0,0,0.00
2013-6-7,76.7,65.6,59.8,69.1,63.5,58.4,100,93,72,29.76,29.61,0,0,0,0.00
2013-6-8,76.4,65.8,57.3,67.0,61.0,57.0,100,86,62,30.03,29.76,0,0,2,0.01
2013-6-9,75.3,65.1,61.9,69.0,64.0,61.3,100,96,79,30.07,29.95,0,0,0,0.01
2013-6-10,74.5,65.0,60.3,66.4,62.1,58.1,100,91,65,29.96,29.83,0,0,0,0.00
2013-6-11,78.3,68.6,61.2,66.4,62.5,60.3,98,82,59,29.95,29.88,0,0,0,0.00
2013-6-12,85.3,75.0,66.3,73.9,67.1,61.4,87,77,56,29.96,29.84,0,0,0,0.00
2013-6-13,86.3,71.3,63.3,70.1,64.6,61.8,97,81,49,29.84,29.63,0,0,0,0.00
2013-6-14,73.7,64.5,55.6,61.8,56.3,51.6,98,76,55,30.00,29.72,0,0,0,0.02
2013-6-15,62.9,58.3,56.0,53.9,52.6,51.2,88,82,67,30.05,29.99,0,0,0,0.00